This is the latest recevied weather packets stored in our database for station/object K4SHP-16. If no packets are shown the sender has not sent any weather packets the latest 10 day(s).
| Time | Temp. | Humidity | Pressure | Rain* | Wind** | Luminosity | Snow |
|---|---|---|---|---|---|---|---|
| 1777787644 | 8.89° C | 95% | 1015.7 hPa | 0 mm | - | - | - |
| 1777787104 | 8.89° C | 95% | 1015.7 hPa | 0 mm | - | - | - |
| 1777784404 | 9.44° C | 95% | 1015.7 hPa | 0 mm | - | - | - |
| 1777779904 | 10° C | 95% | 1015 hPa | 0 mm | - | - | - |
| 1777778284 | 11.11° C | 95% | 1014.8 hPa | 0 mm | - | - | - |
| 1777777744 | 11.11° C | 95% | 1014.7 hPa | 0 mm | - | - | - |
| 1777775785 | 11.11° C | 95% | 1014.7 hPa | 0 mm | - | - | - |
| 1777773604 | 11.11° C | 95% | 1014.3 hPa | 0 mm | - | - | - |
| 1777771645 | 11.11° C | 95% | 1013.9 hPa | 0 mm | - | - | - |
| 1777769104 | 11.11° C | 95% | 1013.2 hPa | 0 mm | - | - | - |
| 1777762465 | 11.67° C | 94% | 1012.1 hPa | 0 mm | - | - | - |
| 1777760284 | 12.22° C | 94% | 1012.2 hPa | 0 mm | - | - | - |
| 1777759765 | 12.22° C | 94% | 1012.1 hPa | 0 mm | - | - | - |
| 1777751644 | 13.33° C | 94% | 1011.2 hPa | 0 mm | - | - | - |
| 1777748403 | 12.78° C | 94% | 1011.6 hPa | 0 mm | - | - | - |
| 1777741204 | 13.33° C | 94% | 1011.9 hPa | 0 mm | - | - | - |
| 1777739764 | 12.78° C | 94% | 1012 hPa | 0 mm | - | - | - |
| 1777737604 | 12.78° C | 94% | 1013.1 hPa | 0 mm | - | - | - |
| 1777737264 | 13.33° C | 94% | 1013.1 hPa | 0 mm | - | - | - |
| 1777734544 | 13.33° C | 94% | 1012.8 hPa | 0 mm | - | - | - |
| 1777732584 | 13.33° C | 94% | 1012.5 hPa | 0 mm | - | - | - |
| 1777731483 | 13.33° C | 94% | 1013.4 hPa | 0 mm | - | - | - |
| 1777728964 | 13.89° C | 94% | 1012.4 hPa | 0 mm | - | - | - |
| 1777726803 | 14.44° C | 94% | 1011.4 hPa | 0 mm | - | - | - |
| 1777726443 | 14.44° C | 94% | 1011.2 hPa | 0 mm | - | - | - |
* Rain latest hour (hover to see other rain measurements)
** Current wind speed in m/s (hover to see current wind gust speed)